This demonstration page uses our WeatherBlox Daily Observations layout. Learn more.

Left ArrowRight Arrow

Hourly Observations for April 9, 2017

Temp ( °F °C ) Dew Point ( °F °C ) Humidity (%) Winds ( mph kmh ) Pressure ( in mb ) Visibility ( mi km ) Precip ( " mm )
12:59 am 00:59 Clear 46 7.8 37 2.8 71 71 SW 3 6 30.10 1019 10 16 0.00 0.00
1:59 am 01:59 Clear 44 6.7 37 2.8 76 76 WSW 3 6 30.11 1020 10 16 0.00 0.00
2:59 am 02:59 Clear 44 6.7 37 2.8 76 76 Calm 30.11 1020 10 16 0.00 0.00
3:59 am 03:59 Clear 42 5.6 37 2.8 82 82 Calm 30.12 1020 10 16 0.00 0.00
4:59 am 04:59 Mostly Clear 40 4.4 36 2.2 86 86 Calm 30.13 1020 10 16 0.00 0.00
5:59 am 05:59 Partly Cloudy 40 4.4 36 2.2 86 86 Calm 30.15 1021 10 16 0.00 0.00
6:59 am 06:59 Mostly Cloudy 40 4.4 37 2.8 89 89 Calm 30.17 1022 10 16 0.00 0.00
7:59 am 07:59 Mostly Cloudy 49 9.4 44 6.7 83 83 Calm 30.20 1023 10 16 0.00 0.00
8:59 am 08:59 Mostly Cloudy 62 16.7 40 4.4 44 44 Calm 30.22 1023 10 16 0.00 0.00
9:59 am 09:59 Partly Cloudy 65 18.3 42 5.6 43 43 VRB 3 6 30.23 1024 10 16 0.00 0.00
10:59 am 10:59 Mostly Sunny 65 18.3 45 7.2 49 49 NNW 8 13 30.24 1024 10 16 0.00 0.00
11:59 am 11:59 Mostly Sunny 69 20.6 35 1.7 29 29 N 7 11 30.24 1024 10 16 0.00 0.00
12:59 pm 12:59 Mostly Sunny 67 19.4 28 -2.2 23 23 ENE 9 15 30.23 1024 10 16 0.00 0.00
1:59 pm 13:59 Mostly Sunny 69 20.6 30 -1.1 23 23 ENE 9 15 30.21 1023 10 16 0.00 0.00
2:59 pm 14:59 Mostly Sunny 69 20.6 31 -0.6 24 24 ENE 13 20 30.21 1023 10 16 0.00 0.00
3:59 pm 15:59 Partly Cloudy 67 19.4 34 1.1 30 30 E 14 22 30.19 1022 10 16 0.00 0.00
4:59 pm 16:59 Partly Cloudy 69 20.6 32 0 25 25 ESE 15 24 30.18 1022 10 16 0.00 0.00
5:59 pm 17:59 Partly Cloudy 66 18.9 33 0.6 29 29 ESE 14 22 30.18 1022 10 16 0.00 0.00
6:59 pm 18:59 Partly Cloudy 63 17.2 36 2.2 37 37 ESE 10 17 30.19 1022 10 16 0.00 0.00
7:59 pm 19:59 Partly Cloudy 59 15 42 5.6 54 54 SE 8 13 30.19 1022 10 16 0.00 0.00
8:59 pm 20:59 Mostly Clear 58 14.4 44 6.7 60 60 SSE 8 13 30.21 1023 10 16 0.00 0.00
9:59 pm 21:59 Mostly Clear 57 13.9 44 6.7 62 62 S 6 9 30.23 1024 10 16 0.00 0.00
10:59 pm 22:59 Clear 59 15 41 5 51 51 S 8 13 30.23 1024 10 16 0.00 0.00
11:59 pm 23:59 Clear 59 15 41 5 51 51 S 12 19 30.24 1024 10 16 0.00 0.00

Powered by AerisWeather